Time,TemperatureF,DewpointF,PressureIn,WindDirection,WindDirectionDegrees,WindSpeedMPH,WindSpeedGustMPH,Humidity,HourlyPrecipIn,Conditions,Clouds,dailyrainin,SoftwareType,DateUTC
2013-04-02 00:03:00,66.0,64.0,29.92,North,360,0.0,0.0,94,0.00,,,0.00,,2013-04-02 04:03:00,
2013-04-02 00:13:00,66.0,64.0,29.92,North,360,0.0,0.0,94,0.00,,,0.00,,2013-04-02 04:13:00,
2013-04-02 00:23:00,66.0,64.0,29.92,North,360,0.0,0.0,94,0.00,,,0.00,,2013-04-02 04:23:00,
2013-04-02 00:33:00,66.0,64.0,29.92,North,360,0.0,0.0,94,0.00,,,0.00,,2013-04-02 04:33:00,
2013-04-02 00:43:00,66.0,64.0,29.92,North,360,0.0,0.0,94,0.00,,,0.00,,2013-04-02 04:43:00,
2013-04-02 00:53:00,65.0,64.0,29.92,North,360,0.0,0.0,95,0.00,,,0.00,,2013-04-02 04:53:00,
2013-04-02 01:02:00,66.0,65.0,29.92,North,360,0.0,0.0,95,0.00,,,0.00,,2013-04-02 05:02:00,
2013-04-02 01:12:00,66.0,65.0,29.92,North,360,0.0,0.0,95,0.00,,,0.00,,2013-04-02 05:12:00,
2013-04-02 01:22:00,66.0,65.0,29.91,North,360,0.0,0.0,95,0.00,,,0.00,,2013-04-02 05:22:00,
2013-04-02 01:32:00,65.0,64.0,29.91,North,360,0.0,0.0,95,0.00,,,0.00,,2013-04-02 05:32:00,
2013-04-02 01:42:00,65.0,64.0,29.91,North,360,0.0,0.0,95,0.00,,,0.00,,2013-04-02 05:42:00,
2013-04-02 01:52:00,65.0,64.0,29.91,North,360,0.0,0.0,96,0.00,,,0.00,,2013-04-02 05:52:00,
2013-04-02 02:02:00,65.0,64.0,29.91,North,360,0.0,0.0,96,0.00,,,0.00,,2013-04-02 06:02:00,
2013-04-02 02:12:00,65.0,64.0,29.91,North,360,0.0,0.0,96,0.00,,,0.00,,2013-04-02 06:12:00,
2013-04-02 02:22:00,64.0,63.0,29.90,North,360,0.0,0.0,96,0.00,,,0.00,,2013-04-02 06:22:00,
2013-04-02 02:32:00,65.0,64.0,29.91,North,360,0.0,0.0,96,0.00,,,0.00,,2013-04-02 06:32:00,
2013-04-02 02:42:00,65.0,64.0,29.91,North,360,0.0,0.0,96,0.00,,,0.00,,2013-04-02 06:42:00,
2013-04-02 02:52:00,65.0,64.0,29.91,North,360,0.0,0.0,96,0.00,,,0.00,,2013-04-02 06:52:00,
2013-04-02 03:02:00,64.0,63.0,29.91,North,360,0.0,0.0,96,0.00,,,0.00,,2013-04-02 07:02:00,
2013-04-02 03:13:00,64.0,63.0,29.91,North,360,0.0,0.0,96,0.00,,,0.00,,2013-04-02 07:13:00,
2013-04-02 03:22:00,64.0,63.0,29.90,SSW,199,0.0,0.0,96,0.00,,,0.00,,2013-04-02 07:22:00,
2013-04-02 03:32:00,64.0,63.0,29.90,North,360,0.0,0.0,96,0.00,,,0.00,,2013-04-02 07:32:00,
2013-04-02 03:42:00,64.0,63.0,29.90,North,360,0.0,0.0,96,0.00,,,0.00,,2013-04-02 07:42:00,
2013-04-02 03:53:00,64.0,63.0,29.90,North,360,0.0,0.0,96,0.00,,,0.00,,2013-04-02 07:53:00,
2013-04-02 04:02:00,64.0,63.0,29.91,North,360,0.0,0.0,96,0.00,,,0.00,,2013-04-02 08:02:00,
2013-04-02 04:13:00,64.0,63.0,29.91,North,360,0.0,0.0,96,0.00,,,0.00,,2013-04-02 08:13:00,
2013-04-02 04:22:00,64.0,63.0,29.91,North,360,0.0,0.0,96,0.00,,,0.00,,2013-04-02 08:22:00,
2013-04-02 04:32:00,63.0,62.0,29.91,North,360,0.0,0.0,96,0.00,,,0.00,,2013-04-02 08:32:00,
2013-04-02 04:42:00,63.0,62.0,29.91,North,360,0.0,0.0,96,0.00,,,0.00,,2013-04-02 08:42:00,
2013-04-02 04:52:00,63.0,62.0,29.91,North,360,0.0,0.0,96,0.00,,,0.00,,2013-04-02 08:52:00,
2013-04-02 05:02:00,63.0,62.0,29.91,North,360,0.0,0.0,97,0.01,,,0.01,,2013-04-02 09:02:00,
2013-04-02 05:12:00,63.0,62.0,29.91,North,360,0.0,0.0,97,0.01,,,0.01,,2013-04-02 09:12:00,
2013-04-02 05:22:00,63.0,62.0,29.92,North,360,0.0,0.0,97,0.01,,,0.01,,2013-04-02 09:22:00,
2013-04-02 05:32:00,63.0,62.0,29.91,North,360,0.0,0.0,97,0.01,,,0.01,,2013-04-02 09:32:00,
2013-04-02 05:43:00,63.0,62.0,29.91,North,360,0.0,0.0,97,0.01,,,0.01,,2013-04-02 09:43:00,
2013-04-02 05:53:00,63.0,62.0,29.91,North,360,0.0,0.0,97,0.01,,,0.01,,2013-04-02 09:53:00,
2013-04-02 06:03:00,62.0,61.0,29.91,North,360,0.0,0.0,97,0.00,,,0.01,,2013-04-02 10:03:00,
2013-04-02 06:13:00,62.0,61.0,29.91,North,360,0.0,0.0,97,0.00,,,0.01,,2013-04-02 10:13:00,
2013-04-02 06:23:00,62.0,61.0,29.91,North,360,0.0,0.0,97,0.00,,,0.01,,2013-04-02 10:23:00,
2013-04-02 06:33:00,61.0,60.0,29.92,North,360,0.0,0.0,97,0.00,,,0.01,,2013-04-02 10:33:00,
2013-04-02 06:42:00,61.0,60.0,29.92,North,360,0.0,0.0,97,0.00,,,0.01,,2013-04-02 10:42:00,
2013-04-02 06:53:00,61.0,60.0,29.92,North,360,0.0,0.0,97,0.00,,,0.01,,2013-04-02 10:53:00,
2013-04-02 07:02:00,61.0,60.0,29.92,North,360,0.0,0.0,97,0.00,,,0.01,,2013-04-02 11:02:00,
2013-04-02 07:12:00,61.0,60.0,29.92,North,360,0.0,0.0,97,0.00,,,0.01,,2013-04-02 11:12:00,
2013-04-02 07:22:00,61.0,60.0,29.93,North,360,0.0,0.0,97,0.00,,,0.01,,2013-04-02 11:22:00,
2013-04-02 07:33:00,60.0,59.0,29.94,North,360,0.0,0.0,98,0.00,,,0.01,,2013-04-02 11:33:00,
2013-04-02 07:43:00,60.0,59.0,29.94,North,360,0.0,0.0,98,0.00,,,0.01,,2013-04-02 11:43:00,
2013-04-02 07:53:00,61.0,60.0,29.95,North,360,0.0,0.0,98,0.00,,,0.01,,2013-04-02 11:53:00,
2013-04-02 08:02:00,61.0,60.0,29.95,North,360,0.0,0.0,98,0.00,,,0.01,,2013-04-02 12:02:00,
2013-04-02 08:12:00,61.0,60.0,29.95,North,360,0.0,0.0,98,0.00,,,0.01,,2013-04-02 12:12:00,
2013-04-02 08:23:00,62.0,62.0,29.96,North,360,0.0,0.0,99,0.00,,,0.01,,2013-04-02 12:23:00,
2013-04-02 08:32:00,62.0,62.0,29.96,North,360,0.0,0.0,99,0.00,,,0.01,,2013-04-02 12:32:00,
2013-04-02 08:42:00,62.0,62.0,29.96,North,360,0.0,0.0,99,0.00,,,0.01,,2013-04-02 12:42:00,
2013-04-02 08:53:00,63.0,63.0,29.97,North,360,0.0,0.0,99,0.00,,,0.01,,2013-04-02 12:53:00,
2013-04-02 09:02:00,64.0,64.0,29.97,North,360,0.0,0.0,99,0.00,,,0.01,,2013-04-02 13:02:00,
2013-04-02 09:12:00,64.0,64.0,29.97,North,360,0.0,0.0,99,0.00,,,0.01,,2013-04-02 13:12:00,
2013-04-02 09:22:00,64.0,64.0,29.97,North,360,0.0,0.0,99,0.00,,,0.01,,2013-04-02 13:22:00,
2013-04-02 09:33:00,65.0,64.0,29.97,North,360,0.0,0.0,98,0.00,,,0.01,,2013-04-02 13:33:00,
2013-04-02 09:42:00,65.0,64.0,29.97,North,360,0.0,0.0,98,0.00,,,0.01,,2013-04-02 13:42:00,
2013-04-02 09:52:00,66.0,65.0,29.98,North,360,0.0,0.0,97,0.01,,,0.02,,2013-04-02 13:52:00,
2013-04-02 10:02:00,66.0,65.0,29.98,NE,40,2.0,2.0,95,0.01,,,0.02,,2013-04-02 14:02:00,
2013-04-02 10:23:00,67.0,65.0,29.99,North,360,0.0,2.0,93,0.01,,,0.02,,2013-04-02 14:23:00,
2013-04-02 10:32:00,68.0,65.0,29.99,North,360,0.0,0.0,91,0.01,,,0.02,,2013-04-02 14:32:00,
2013-04-02 10:42:00,68.0,65.0,29.99,North,360,0.0,0.0,91,0.01,,,0.02,,2013-04-02 14:42:00,
2013-04-02 10:52:00,69.0,65.0,29.99,North,360,0.0,0.0,87,0.00,,,0.02,,2013-04-02 14:52:00,
2013-04-02 11:02:00,70.0,65.0,29.99,North,360,0.0,1.0,85,0.00,,,0.02,,2013-04-02 15:02:00,
2013-04-02 11:11:00,70.0,65.0,29.99,North,360,0.0,1.0,85,0.00,,,0.02,,2013-04-02 15:11:00,
2013-04-02 11:22:00,71.0,65.0,29.99,NE,49,2.0,3.0,80,0.00,,,0.02,,2013-04-02 15:22:00,
2013-04-02 11:33:00,72.0,65.0,29.99,NNE,15,1.0,1.0,79,0.01,,,0.03,,2013-04-02 15:33:00,
2013-04-02 11:43:00,72.0,65.0,29.99,NNE,15,1.0,1.0,79,0.01,,,0.03,,2013-04-02 15:43:00,
2013-04-02 11:58:00,73.0,65.0,29.99,North,8,4.0,4.0,75,0.01,,,0.03,,2013-04-02 15:58:00,
2013-04-02 12:04:00,75.0,65.0,29.99,East,79,0.0,0.0,70,0.01,,,0.03,,2013-04-02 16:04:00,
2013-04-02 12:13:00,75.0,65.0,29.99,East,79,0.0,0.0,70,0.01,,,0.03,,2013-04-02 16:13:00,
2013-04-02 12:24:00,76.0,65.0,29.98,North,360,0.0,6.0,68,0.01,,,0.03,,2013-04-02 16:24:00,
2013-04-02 12:36:00,77.0,66.0,29.98,North,360,0.0,0.0,68,0.00,,,0.03,,2013-04-02 16:36:00,
2013-04-02 12:44:00,77.0,66.0,29.98,North,360,0.0,0.0,68,0.00,,,0.03,,2013-04-02 16:44:00,
2013-04-02 12:53:00,79.0,66.0,29.98,North,6,2.0,2.0,64,0.00,,,0.03,,2013-04-02 16:53:00,
2013-04-02 13:05:00,79.0,65.0,29.98,NNE,24,4.0,4.0,63,0.00,,,0.03,,2013-04-02 17:05:00,
2013-04-02 13:13:00,79.0,65.0,29.98,NNE,24,4.0,4.0,63,0.00,,,0.03,,2013-04-02 17:13:00,
2013-04-02 13:25:00,80.0,64.0,29.97,North,6,0.0,4.0,59,0.00,,,0.03,,2013-04-02 17:25:00,
2013-04-02 13:34:00,80.0,66.0,29.97,SE,140,0.0,1.0,63,0.00,,,0.03,,2013-04-02 17:34:00,
2013-04-02 13:43:00,80.0,66.0,29.97,SE,140,0.0,1.0,63,0.00,,,0.03,,2013-04-02 17:43:00,
2013-04-02 13:56:00,80.0,66.0,29.96,WSW,244,0.0,1.0,63,0.00,,,0.03,,2013-04-02 17:56:00,
2013-04-02 14:04:00,79.0,66.0,29.96,SSW,208,0.0,0.0,64,0.00,,,0.03,,2013-04-02 18:04:00,
2013-04-02 14:12:00,79.0,66.0,29.96,SSW,208,0.0,0.0,64,0.00,,,0.03,,2013-04-02 18:12:00,
2013-04-02 14:23:00,79.0,66.0,29.95,North,360,0.0,0.0,65,0.00,,,0.03,,2013-04-02 18:23:00,
2013-04-02 14:34:00,78.0,64.0,29.94,South,174,2.0,2.0,63,0.00,,,0.03,,2013-04-02 18:34:00,
2013-04-02 14:43:00,78.0,64.0,29.94,South,174,2.0,2.0,63,0.00,,,0.03,,2013-04-02 18:43:00,
2013-04-02 14:57:00,79.0,65.0,29.94,NNW,344,0.0,0.0,63,0.00,,,0.03,,2013-04-02 18:57:00,
2013-04-02 15:03:00,81.0,66.0,29.93,North,360,0.0,0.0,60,0.00,,,0.03,,2013-04-02 19:03:00,
2013-04-02 15:13:00,81.0,66.0,29.93,North,360,0.0,0.0,60,0.00,,,0.03,,2013-04-02 19:13:00,
2013-04-02 15:23:00,81.0,65.0,29.93,North,360,0.0,1.0,59,0.00,,,0.03,,2013-04-02 19:23:00,
2013-04-02 15:34:00,81.0,65.0,29.92,North,360,0.0,0.0,59,0.00,,,0.03,,2013-04-02 19:34:00,
2013-04-02 15:45:00,81.0,65.0,29.92,North,360,0.0,0.0,59,0.00,,,0.03,,2013-04-02 19:45:00,
2013-04-02 15:57:00,82.0,66.0,29.92,North,360,0.0,0.0,59,0.00,,,0.03,,2013-04-02 19:57:00,
2013-04-02 16:03:00,82.0,66.0,29.92,NNW,348,0.0,1.0,59,0.00,,,0.03,,2013-04-02 20:03:00,
2013-04-02 16:13:00,82.0,66.0,29.92,NNW,348,0.0,1.0,59,0.00,,,0.03,,2013-04-02 20:13:00,
2013-04-02 16:22:00,82.0,65.0,29.92,North,360,0.0,0.0,57,0.00,,,0.03,,2013-04-02 20:22:00,
2013-04-02 16:33:00,82.0,65.0,29.91,SW,233,0.0,0.0,56,0.00,,,0.03,,2013-04-02 20:33:00,
2013-04-02 16:44:00,82.0,65.0,29.91,SW,233,0.0,0.0,56,0.00,,,0.03,,2013-04-02 20:44:00,
2013-04-02 16:55:00,82.0,65.0,29.91,SW,233,0.0,0.0,56,0.00,,,0.03,,2013-04-02 20:55:00,
2013-04-02 17:04:00,79.0,63.0,29.92,North,360,0.0,0.0,58,0.00,,,0.03,,2013-04-02 21:04:00,
2013-04-02 17:13:00,79.0,63.0,29.92,North,360,0.0,0.0,58,0.00,,,0.03,,2013-04-02 21:13:00,
2013-04-02 17:23:00,77.0,62.0,29.92,North,360,0.0,0.0,60,0.00,,,0.03,,2013-04-02 21:23:00,
2013-04-02 17:34:00,77.0,63.0,29.92,SW,232,0.0,0.0,62,0.00,,,0.03,,2013-04-02 21:34:00,
2013-04-02 17:44:00,77.0,63.0,29.92,SW,232,0.0,0.0,62,0.00,,,0.03,,2013-04-02 21:44:00,
2013-04-02 17:54:00,76.0,62.0,29.92,North,360,0.0,0.0,62,0.00,,,0.03,,2013-04-02 21:54:00,
2013-04-02 18:04:00,75.0,62.0,29.92,North,360,0.0,0.0,64,0.00,,,0.03,,2013-04-02 22:04:00,
2013-04-02 18:14:00,75.0,62.0,29.92,North,360,0.0,0.0,64,0.00,,,0.03,,2013-04-02 22:14:00,
2013-04-02 18:24:00,75.0,62.0,29.92,SSW,203,0.0,0.0,64,0.00,,,0.03,,2013-04-02 22:24:00,
2013-04-02 18:33:00,75.0,62.0,29.92,North,360,0.0,0.0,65,0.00,,,0.03,,2013-04-02 22:33:00,
2013-04-02 18:43:00,75.0,62.0,29.92,North,360,0.0,0.0,65,0.00,,,0.03,,2013-04-02 22:43:00,
2013-04-02 18:54:00,74.0,61.0,29.92,North,360,0.0,0.0,64,0.00,,,0.03,,2013-04-02 22:54:00,
2013-04-02 19:03:00,73.0,61.0,29.92,North,360,0.0,0.0,65,0.00,,,0.03,,2013-04-02 23:03:00,
2013-04-02 19:13:00,73.0,61.0,29.92,North,360,0.0,0.0,65,0.00,,,0.03,,2013-04-02 23:13:00,
2013-04-02 19:23:00,73.0,61.0,29.92,North,360,0.0,0.0,65,0.00,,,0.03,,2013-04-02 23:23:00,
2013-04-02 19:35:00,72.0,59.0,29.92,North,360,0.0,0.0,64,0.00,,,0.03,,2013-04-02 23:35:00,
2013-04-02 19:43:00,72.0,59.0,29.92,North,360,0.0,0.0,64,0.00,,,0.03,,2013-04-02 23:43:00,
2013-04-02 19:54:00,72.0,60.0,29.92,North,360,0.0,0.0,65,0.00,,,0.03,,2013-04-02 23:54:00,
2013-04-02 20:04:00,71.0,59.0,29.92,North,360,0.0,0.0,66,0.00,,,0.03,,2013-04-03 00:04:00,
2013-04-02 20:13:00,71.0,59.0,29.92,North,360,0.0,0.0,66,0.00,,,0.03,,2013-04-03 00:13:00,
2013-04-02 20:24:00,70.0,59.0,29.92,North,360,0.0,0.0,69,0.00,,,0.03,,2013-04-03 00:24:00,
2013-04-02 20:33:00,69.0,59.0,29.93,North,360,0.0,0.0,70,0.00,,,0.03,,2013-04-03 00:33:00,
2013-04-02 20:47:00,69.0,59.0,29.93,North,360,0.0,0.0,70,0.00,,,0.03,,2013-04-03 00:47:00,
2013-04-02 20:57:00,68.0,59.0,29.93,North,360,0.0,0.0,72,0.00,,,0.03,,2013-04-03 00:57:00,
2013-04-02 21:04:00,67.0,58.0,29.94,North,360,0.0,0.0,73,0.00,,,0.03,,2013-04-03 01:04:00,
2013-04-02 21:12:00,67.0,58.0,29.94,North,360,0.0,0.0,73,0.00,,,0.03,,2013-04-03 01:12:00,
2013-04-02 21:23:00,67.0,59.0,29.94,North,360,0.0,0.0,76,0.00,,,0.03,,2013-04-03 01:23:00,
2013-04-02 21:33:00,66.0,59.0,29.94,North,360,0.0,0.0,77,0.00,,,0.03,,2013-04-03 01:33:00,
2013-04-02 21:42:00,66.0,59.0,29.94,North,360,0.0,0.0,77,0.00,,,0.03,,2013-04-03 01:42:00,
2013-04-02 21:53:00,66.0,60.0,29.95,North,360,0.0,0.0,80,0.00,,,0.03,,2013-04-03 01:53:00,
2013-04-02 22:03:00,66.0,60.0,29.95,North,360,0.0,0.0,80,0.00,,,0.03,,2013-04-03 02:03:00,
2013-04-02 22:13:00,66.0,60.0,29.95,North,360,0.0,0.0,80,0.00,,,0.03,,2013-04-03 02:13:00,
2013-04-02 22:24:00,66.0,60.0,29.94,North,360,0.0,0.0,82,0.00,,,0.03,,2013-04-03 02:24:00,
2013-04-02 22:34:00,65.0,59.0,29.94,North,360,0.0,0.0,82,0.00,,,0.03,,2013-04-03 02:34:00,
2013-04-02 22:43:00,65.0,59.0,29.94,North,360,0.0,0.0,82,0.00,,,0.03,,2013-04-03 02:43:00,
2013-04-02 22:53:00,65.0,60.0,29.95,North,360,0.0,0.0,84,0.00,,,0.03,,2013-04-03 02:53:00,
2013-04-02 23:05:00,65.0,60.0,29.97,North,360,0.0,0.0,84,0.00,,,0.03,,2013-04-03 03:05:00,
2013-04-02 23:14:00,65.0,60.0,29.97,North,360,0.0,0.0,84,0.00,,,0.03,,2013-04-03 03:14:00,
2013-04-02 23:23:00,65.0,60.0,29.97,North,360,0.0,0.0,84,0.00,,,0.03,,2013-04-03 03:23:00,
2013-04-02 23:37:00,65.0,61.0,29.98,North,360,0.0,0.0,86,0.00,,,0.03,,2013-04-03 03:37:00,
2013-04-02 23:44:00,65.0,61.0,29.98,North,360,0.0,0.0,86,0.00,,,0.03,,2013-04-03 03:44:00,
2013-04-02 23:54:00,65.0,61.0,29.98,North,360,0.0,0.0,86,0.00,,,0.03,,2013-04-03 03:54:00,